Brookings, SD

4:34 AM CDT on October 22, 2017 (GMT -0500)
Brookings Municipal

Weather History for KBKX - May, 2013

Change the Weather History Date:

Thursday, May 9, 2013

  Actual Average Record
Temperature  
Mean Temperature 56 °F -  
Max Temperature 64 °F 62 °F 89 °F (2004)
Min Temperature 48 °F 41 °F 30 °F (2015)
Degree Days  
Heating Degree Days 9    
Growing Degree Days 6 (Base 50)    
Moisture  
Dew Point 50 °F    
Average Humidity 85    
Maximum Humidity 94    
Minimum Humidity 63    
Precipitation  
Precipitation 0.00 in - - ()
Sea Level Pressure  
Sea Level Pressure 30.06 in    
Wind  
Wind Speed 11 mph (ENE)    
Max Wind Speed 17 mph    
Max Gust Speed 21 mph    
Visibility 9 miles    
Events      
Averages and records for this station are not official NWS values.
T = Trace of Precipitation, MM = Missing Value Source: NWS Daily Summary

Daily Weather History Graph

Daily Weather History Graph

Search for Another Location

Airport or City:

Trip Planner

Search our weather history database for the weather conditions in past years. The results will help you decide how hot, cold, wet, or windy it might be!

Date:

Astronomy

May. 09, 2013 Rise Set
Actual Time 6:07 AM CDT 8:41 PM CDT
Civil Twilight 5:34 AM CDT 9:14 PM CDT
Nautical Twilight 4:52 AM CDT 9:55 PM CDT
Astronomical Twilight 4:06 AM CDT 10:42 PM CDT
Moon 5:53 AM CDT (5/9) 8:37 PM CDT (5/9)
Length of Visible Light 15h 39m
Length of Day
14h 34m
Waning Crescent, 0% of the Moon is Illuminated
May 9
Waning Crescent
May 9
New
May 17
First Quarter
May 24
Full
May 31
Last Quarter

Hourly Weather History & Observations

Time (CDT) Temp. Dew Point Humidity Pressure Visibility Wind Dir Wind Speed Gust Speed Precip Events Conditions
12:15 AM 55.4 °F 53.6 °F 94% 30.02 in 7.0 mi East 9.2 mph - N/A   Overcast
12:35 AM 55.4 °F 53.6 °F 94% 30.02 in 5.0 mi East 8.1 mph - N/A   Overcast
12:55 AM 55.4 °F 53.6 °F 94% 30.02 in 4.0 mi East 6.9 mph - N/A   Overcast
1:15 AM 55.4 °F 53.6 °F 94% 30.02 in 5.0 mi ENE 9.2 mph - N/A   Overcast
1:35 AM 55.4 °F 53.6 °F 94% 30.02 in 6.0 mi ENE 9.2 mph - N/A   Overcast
1:55 AM 55.4 °F 51.8 °F 88% 30.01 in 8.0 mi East 11.5 mph - N/A   Overcast
2:15 AM 55.4 °F 51.8 °F 88% 30.01 in 10.0 mi East 11.5 mph - N/A   Overcast
2:35 AM 55.4 °F 51.8 °F 88% 30.02 in 9.0 mi ENE 11.5 mph - N/A   Overcast
2:55 AM 55.4 °F 51.8 °F 88% 30.02 in 9.0 mi ENE 6.9 mph - N/A   Overcast
3:15 AM 53.6 °F 51.8 °F 94% 30.02 in 7.0 mi ENE 10.4 mph - N/A   Overcast
3:35 AM 53.6 °F 51.8 °F 94% 30.01 in 5.0 mi ENE 9.2 mph - N/A   Overcast
3:55 AM 53.6 °F 51.8 °F 94% 30.00 in 7.0 mi ENE 11.5 mph - N/A   Overcast
4:15 AM 53.6 °F 51.8 °F 94% 30.00 in 8.0 mi ENE 10.4 mph - N/A   Overcast
4:35 AM 53.6 °F 51.8 °F 94% 30.00 in 9.0 mi ENE 9.2 mph - N/A   Overcast
4:55 AM 53.6 °F 51.8 °F 94% 30.01 in 8.0 mi NE 9.2 mph - N/A   Overcast
5:15 AM 53.6 °F 51.8 °F 94% 30.01 in 9.0 mi NE 11.5 mph - N/A   Overcast
5:35 AM 53.6 °F 51.8 °F 94% 30.01 in 9.0 mi NE 11.5 mph - N/A   Overcast
5:55 AM 53.6 °F 51.8 °F 94% 30.01 in 8.0 mi NE 10.4 mph - N/A   Overcast
6:15 AM 53.6 °F 51.8 °F 94% 30.01 in 7.0 mi NE 11.5 mph 17.3 mph N/A   Overcast
6:35 AM 51.8 °F 50.0 °F 94% 30.02 in 7.0 mi NE 11.5 mph - N/A   Overcast
6:55 AM 51.8 °F 50.0 °F 94% 30.03 in 7.0 mi NE 11.5 mph - N/A   Overcast
7:15 AM 51.8 °F 50.0 °F 94% 30.04 in 7.0 mi NE 10.4 mph 16.1 mph N/A   Overcast
7:35 AM 51.8 °F 48.2 °F 88% 30.04 in 8.0 mi NE 11.5 mph - N/A   Overcast
7:55 AM 51.8 °F 48.2 °F 88% 30.04 in 5.0 mi NE 12.7 mph - N/A   Overcast
8:15 AM 51.8 °F 48.2 °F 88% 30.05 in 5.0 mi NE 12.7 mph 19.6 mph N/A   Overcast
8:35 AM 51.8 °F 50.0 °F 94% 30.05 in 5.0 mi NE 9.2 mph - N/A   Overcast
8:55 AM 51.8 °F 50.0 °F 94% 30.06 in 7.0 mi NNE 11.5 mph - N/A   Overcast
9:15 AM 51.8 °F 48.2 °F 88% 30.07 in 7.0 mi NE 17.3 mph - N/A   Overcast
9:35 AM 51.8 °F 48.2 °F 88% 30.07 in 6.0 mi NE 12.7 mph - N/A   Overcast
9:55 AM 48.2 °F 46.4 °F 93% 30.07 in 4.0 mi NNE 13.8 mph - N/A   Overcast
10:35 AM 48.2 °F 46.4 °F 93% 30.08 in 10.0 mi NNE 12.7 mph 20.7 mph N/A   Overcast
10:55 AM 48.2 °F 46.4 °F 93% 30.08 in 10.0 mi NNE 10.4 mph - N/A   Overcast
11:15 AM 50.0 °F 46.4 °F 87% 30.08 in 10.0 mi NNE 10.4 mph - N/A   Overcast
11:35 AM 51.8 °F 48.2 °F 88% 30.09 in 10.0 mi NNE 9.2 mph - N/A   Overcast
12:15 PM 51.8 °F 48.2 °F 88% 30.09 in 10.0 mi NNE 12.7 mph - N/A   Overcast
12:35 PM 53.6 °F 48.2 °F 82% 30.08 in 10.0 mi NE 13.8 mph - N/A   Overcast
12:55 PM 53.6 °F 48.2 °F 82% 30.08 in 10.0 mi NNE 13.8 mph - N/A   Overcast
1:15 PM 53.6 °F 46.4 °F 77% 30.08 in 10.0 mi NNE 15.0 mph - N/A   Overcast
1:35 PM 53.6 °F 48.2 °F 82% 30.08 in 10.0 mi NE 13.8 mph - N/A   Mostly Cloudy
1:55 PM 53.6 °F 48.2 °F 82% 30.08 in 10.0 mi NE 11.5 mph - N/A   Overcast
2:15 PM 55.4 °F 48.2 °F 77% 30.08 in 10.0 mi NNE 15.0 mph 18.4 mph N/A   Overcast
2:35 PM 57.2 °F 51.8 °F 82% 30.07 in 10.0 mi NE 11.5 mph 19.6 mph N/A   Overcast
2:55 PM 57.2 °F 51.8 °F 82% 30.07 in 10.0 mi NE 13.8 mph - N/A   Overcast
3:15 PM 60.8 °F 51.8 °F 72% 30.07 in 10.0 mi NE 12.7 mph 20.7 mph N/A   Overcast
3:35 PM 60.8 °F 50.0 °F 68% 30.07 in 10.0 mi ENE 11.5 mph 17.3 mph N/A   Overcast
3:55 PM 60.8 °F 51.8 °F 72% 30.07 in 10.0 mi NE 12.7 mph - N/A   Overcast
4:15 PM 60.8 °F 51.8 °F 72% 30.07 in 10.0 mi NE 10.4 mph 16.1 mph N/A   Overcast
4:35 PM 60.8 °F 50.0 °F 68% 30.06 in 10.0 mi NE 11.5 mph 19.6 mph N/A   Overcast
4:55 PM 64.4 °F 51.8 °F 64% 30.05 in 10.0 mi NE 11.5 mph - N/A   Overcast
5:15 PM 62.6 °F 50.0 °F 63% 30.06 in 10.0 mi ENE 10.4 mph - N/A   Mostly Cloudy
5:35 PM 62.6 °F 51.8 °F 68% 30.05 in 10.0 mi NE 9.2 mph - N/A   Scattered Clouds
5:55 PM 62.6 °F 51.8 °F 68% 30.05 in 10.0 mi East 11.5 mph - N/A   Mostly Cloudy
6:15 PM 60.8 °F 51.8 °F 72% 30.05 in 10.0 mi East 10.4 mph 16.1 mph N/A   Overcast
6:35 PM 60.8 °F 51.8 °F 72% 30.06 in 10.0 mi East 9.2 mph - N/A   Mostly Cloudy
6:55 PM 59.0 °F 51.8 °F 77% 30.06 in 10.0 mi ESE 12.7 mph 19.6 mph N/A   Partly Cloudy
7:15 PM 59.0 °F 51.8 °F 77% 30.06 in 10.0 mi ESE 12.7 mph 17.3 mph N/A   Scattered Clouds
7:35 PM 57.2 °F 51.8 °F 82% 30.07 in 10.0 mi East 11.5 mph 16.1 mph N/A   Scattered Clouds
7:55 PM 57.2 °F 51.8 °F 82% 30.07 in 10.0 mi East 8.1 mph - N/A   Scattered Clouds
8:15 PM 57.2 °F 51.8 °F 82% 30.08 in 10.0 mi East 10.4 mph - N/A   Scattered Clouds
8:35 PM 55.4 °F 50.0 °F 82% 30.09 in 10.0 mi East 10.4 mph - N/A   Mostly Cloudy
8:55 PM 55.4 °F 50.0 °F 82% 30.10 in 10.0 mi East 10.4 mph - N/A   Partly Cloudy
9:15 PM 53.6 °F 48.2 °F 82% 30.11 in 10.0 mi East 8.1 mph - N/A   Mostly Cloudy
9:35 PM 53.6 °F 48.2 °F 82% 30.12 in 10.0 mi East 8.1 mph - N/A   Mostly Cloudy
9:55 PM 53.6 °F 48.2 °F 82% 30.12 in 10.0 mi ESE 8.1 mph - N/A   Scattered Clouds
10:15 PM 51.8 °F 48.2 °F 88% 30.12 in 10.0 mi East 9.2 mph - N/A   Clear
10:55 PM 51.8 °F 48.2 °F 88% 30.13 in 10.0 mi East 13.8 mph 18.4 mph N/A   Overcast
11:15 PM 51.8 °F 46.4 °F 82% 30.13 in 10.0 mi ESE 11.5 mph - N/A   Overcast
11:35 PM 48.2 °F 44.6 °F 87% 30.14 in 10.0 mi ESE 10.4 mph - N/A   Overcast
11:55 PM 48.2 °F 44.6 °F 87% 30.14 in 10.0 mi ESE 11.5 mph 17.3 mph N/A   Overcast